TimeEDT,TemperatureF,Dew PointF,Humidity,Sea Level PressureIn,VisibilityMPH,Wind Direction,Wind SpeedMPH,Gust SpeedMPH,PrecipitationIn,Events,Conditions,WindDirDegrees,DateUTC
12:53 AM,46.0,23.0,40,29.89,10.0,SW,3.5,-,N/A,,Overcast,230,2012-11-02 04:53:00
1:53 AM,46.0,24.1,42,29.88,10.0,Variable,4.6,-,N/A,,Overcast,0,2012-11-02 05:53:00
2:53 AM,46.0,26.1,46,29.87,10.0,Calm,Calm,-,N/A,,Overcast,0,2012-11-02 06:53:00
3:53 AM,46.0,26.1,46,29.87,10.0,Calm,Calm,-,N/A,,Overcast,0,2012-11-02 07:53:00
4:53 AM,46.0,26.1,46,29.84,10.0,Variable,3.5,-,N/A,,Overcast,0,2012-11-02 08:53:00
5:53 AM,46.0,28.0,50,29.84,10.0,Calm,Calm,-,N/A,,Overcast,0,2012-11-02 09:53:00
6:53 AM,46.0,28.9,51,29.85,10.0,Variable,4.6,-,N/A,,Overcast,0,2012-11-02 10:53:00
7:53 AM,46.0,30.0,54,29.87,10.0,Variable,4.6,-,N/A,,Overcast,0,2012-11-02 11:53:00
8:53 AM,46.9,30.9,54,29.89,10.0,Variable,4.6,-,N/A,,Mostly Cloudy,0,2012-11-02 12:53:00
9:53 AM,46.9,32.0,56,29.94,10.0,Variable,6.9,-,N/A,,Overcast,0,2012-11-02 13:53:00
10:53 AM,48.9,30.0,48,29.96,10.0,Variable,5.8,-,N/A,,Clear,0,2012-11-02 14:53:00
11:53 AM,51.1,28.9,43,29.96,10.0,Variable,5.8,-,N/A,,Clear,0,2012-11-02 15:53:00
12:53 PM,51.1,27.0,39,29.96,10.0,Variable,6.9,-,N/A,,Clear,0,2012-11-02 16:53:00
1:53 PM,53.1,28.0,38,29.96,10.0,Variable,3.5,-,N/A,,Clear,0,2012-11-02 17:53:00
2:53 PM,54.0,26.1,34,29.96,10.0,Calm,Calm,-,N/A,,Clear,0,2012-11-02 18:53:00
3:53 PM,55.0,26.1,33,29.95,10.0,Variable,3.5,-,N/A,,Clear,0,2012-11-02 19:53:00
4:53 PM,53.1,26.1,35,29.97,10.0,WNW,6.9,-,N/A,,Clear,290,2012-11-02 20:53:00
5:53 PM,52.0,26.1,37,29.99,10.0,WNW,5.8,-,N/A,,Clear,300,2012-11-02 21:53:00
6:53 PM,48.9,27.0,43,30.01,10.0,NW,5.8,-,N/A,,Clear,320,2012-11-02 22:53:00
7:53 PM,46.9,26.1,44,30.03,10.0,NNW,5.8,-,N/A,,Clear,330,2012-11-02 23:53:00
8:53 PM,46.0,27.0,47,30.04,10.0,NW,3.5,-,N/A,,Clear,310,2012-11-03 00:53:00
9:53 PM,46.0,27.0,47,30.05,10.0,North,4.6,-,N/A,,Clear,350,2012-11-03 01:53:00
10:53 PM,43.0,28.0,56,30.06,10.0,Calm,Calm,-,N/A,,Clear,0,2012-11-03 02:53:00
11:53 PM,41.0,28.9,62,30.06,10.0,Calm,Calm,-,N/A,,Clear,0,2012-11-03 03:53:00